TimeAKST,TemperatureF,Dew PointF,Humidity,Sea Level PressureIn,VisibilityMPH,Wind Direction,Wind SpeedMPH,Gust SpeedMPH,PrecipitationIn,Events,Conditions,WindDirDegrees,DateUTC
12:58 AM,-31.0,-9999,N/A,29.66,10.0,Calm,Calm,-,N/A,,Clear,0,2014-01-11 09:58:00
1:58 AM,-32.1,-9999,N/A,29.65,9.0,Calm,Calm,-,N/A,,Clear,0,2014-01-11 10:58:00
2:58 AM,-33.0,-9999,N/A,29.63,8.0,Calm,Calm,-,N/A,,Clear,0,2014-01-11 11:58:00
3:58 AM,-33.0,-9999,N/A,29.62,8.0,Calm,Calm,-,N/A,,Clear,0,2014-01-11 12:58:00
4:58 AM,-33.0,-9999,N/A,29.60,9.0,Calm,Calm,-,N/A,,Clear,0,2014-01-11 13:58:00
5:58 AM,-34.1,-9999,N/A,29.58,10.0,SE,3.5,-,N/A,,Clear,130,2014-01-11 14:58:00
6:58 AM,-35.0,-9999,N/A,29.57,9.0,Calm,Calm,-,N/A,,Clear,0,2014-01-11 15:58:00
7:58 AM,-35.0,-9999,N/A,29.56,9.0,Calm,Calm,-,N/A,,Clear,0,2014-01-11 16:58:00
8:58 AM,-35.0,-9999,N/A,29.55,10.0,Calm,Calm,-,N/A,,Clear,0,2014-01-11 17:58:00
9:58 AM,-36.0,-9999,N/A,29.54,9.0,Calm,Calm,-,N/A,,Clear,0,2014-01-11 18:58:00
10:58 AM,-36.9,-9999,N/A,29.53,6.0,Calm,Calm,-,N/A,,Haze,0,2014-01-11 19:58:00
11:58 AM,-33.0,-9999,N/A,29.53,9.0,Calm,Calm,-,N/A,,Clear,0,2014-01-11 20:58:00
12:39 PM,-31.0,-9999,N/A,29.49,1.8,Calm,Calm,-,N/A,,Clear,0,2014-01-11 21:39:00
12:52 PM,-31.0,-9999,N/A,29.49,3.0,Calm,Calm,-,N/A,,Clear,0,2014-01-11 21:52:00
12:58 PM,-29.9,-9999,N/A,29.51,7.0,Calm,Calm,-,N/A,,Clear,0,2014-01-11 21:58:00
1:58 PM,-27.0,-34.1,69,29.50,6.0,Calm,Calm,-,N/A,,Haze,0,2014-01-11 22:58:00
2:50 PM,-29.2,-36.4,68,29.46,2.5,Calm,Calm,-,N/A,,Haze,0,2014-01-11 23:50:00
2:58 PM,-29.9,-9999,N/A,29.49,1.5,Calm,Calm,-,N/A,,Clear,0,2014-01-11 23:58:00
3:14 PM,-31.0,-9999,N/A,29.46,3.0,Calm,Calm,-,N/A,,Clear,0,2014-01-12 00:14:00
3:58 PM,-32.1,-9999,N/A,29.47,10.0,Calm,Calm,-,N/A,,Clear,0,2014-01-12 00:58:00
4:58 PM,-34.1,-9999,N/A,29.46,10.0,Calm,Calm,-,N/A,,Clear,0,2014-01-12 01:58:00
5:58 PM,-36.0,-9999,N/A,29.44,10.0,Calm,Calm,-,N/A,,Clear,0,2014-01-12 02:58:00
6:58 PM,-38.0,-9999,N/A,29.44,4.0,Calm,Calm,-,N/A,,Haze,0,2014-01-12 03:58:00
7:53 PM,-38.2,-9999,N/A,29.41,2.0,Calm,Calm,-,N/A,,Clear,0,2014-01-12 04:53:00
7:57 PM,-38.0,-9999,N/A,29.44,1.8,Calm,Calm,-,N/A,,Clear,0,2014-01-12 04:57:00
8:01 PM,-38.2,-9999,N/A,29.41,2.0,Calm,Calm,-,N/A,,Clear,0,2014-01-12 05:01:00
8:09 PM,-38.2,-9999,N/A,29.41,4.0,Calm,Calm,-,N/A,,Haze,0,2014-01-12 05:09:00
8:51 PM,-38.2,-9999,N/A,29.40,2.0,Calm,Calm,-,N/A,,Clear,0,2014-01-12 05:51:00
8:58 PM,-38.0,-9999,N/A,29.44,1.5,Calm,Calm,-,N/A,,Clear,0,2014-01-12 05:58:00
9:11 PM,-38.2,-9999,N/A,29.40,2.5,Calm,Calm,-,N/A,,Clear,0,2014-01-12 06:11:00
9:19 PM,-38.2,-9999,N/A,29.40,4.0,Calm,Calm,-,N/A,,Haze,0,2014-01-12 06:19:00
9:55 PM,-40.0,-9999,N/A,29.40,1.8,Calm,Calm,-,N/A,,Clear,0,2014-01-12 06:55:00
9:58 PM,-40.0,-9999,N/A,29.43,1.2,Calm,Calm,-,N/A,,Clear,0,2014-01-12 06:58:00
10:09 PM,-40.0,-9999,N/A,29.40,2.5,Calm,Calm,-,N/A,,Clear,0,2014-01-12 07:09:00
10:18 PM,-40.0,-9999,N/A,29.40,4.0,North,4.6,-,N/A,,Haze,10,2014-01-12 07:18:00
10:34 PM,-40.0,-9999,N/A,29.40,1.8,Calm,Calm,-,N/A,,Clear,0,2014-01-12 07:34:00
10:42 PM,-40.0,-9999,N/A,29.39,1.0,Calm,Calm,-,N/A,,Clear,0,2014-01-12 07:42:00
10:48 PM,-40.0,-9999,N/A,29.39,1.5,Calm,Calm,-,N/A,,Clear,0,2014-01-12 07:48:00
10:54 PM,-40.0,-9999,N/A,29.39,2.5,Calm,Calm,-,N/A,,Clear,0,2014-01-12 07:54:00
10:58 PM,-40.0,-9999,N/A,29.42,4.0,Calm,Calm,-,N/A,,Haze,0,2014-01-12 07:58:00
11:05 PM,-40.0,-9999,N/A,29.39,2.0,Calm,Calm,-,N/A,,Clear,0,2014-01-12 08:05:00
11:09 PM,-40.0,-9999,N/A,29.40,1.5,Calm,Calm,-,N/A,,Clear,0,2014-01-12 08:09:00
11:19 PM,-40.0,-9999,N/A,29.40,1.2,Calm,Calm,-,N/A,,Partly Cloudy,0,2014-01-12 08:19:00
11:58 PM,-41.1,-9999,N/A,29.43,1.8,Calm,Calm,-,N/A,,Clear,0,2014-01-12 08:58:00